Wind_Speed
11 10 12 12 12 11 11 11 13 14 15 15 15 15 15 16 16 14 14 21 22 19 18 17 20 21 21 18 17 18 16 14 13 12 11 11 11 11 10 9 9 9 9
12 11 12 12 13 11 10 11 12 16 13 14 16 17 16 15 17 19 20 16 20 19 21 20 21 21 22 20 18 21 17 16 17 13 12 12 11 11 11 10 9 9 8
15 16 17 16 13 13 13 12 12 14 16 21 18 18 21 20 23 23 22 22 18 19 24 23 21 20 20 19 18 22 19 19 19 18 16 15 13 13 12 12 11 11 10
17 20 21 19 12 14 15 13 13 12 16 18 20 21 21 22 22 20 20 18 21 20 19 20 23 21 20 21 18 17 19 21 20 20 20 18 17 15 14 13 12 12 13
20 18 20 20 18 16 19 15 16 17 16 18 19 20 24 28 26 23 21 18 18 20 18 18 20 19 20 20 19 19 20 22 22 24 23 21 21 19 17 16 14 13 13
19 16 16 18 19 17 20 19 17 19 18 16 17 16 18 21 23 22 22 19 19 16 18 21 17 19 19 19 19 17 20 21 19 19 21 23 23 23 20 19 18 16 16
21 16 20 19 17 15 17 21 21 19 19 15 18 16 18 17 21 23 22 23 22 22 18 17 18 18 17 17 20 20 18 20 19 18 18 19 23 24 22 21 20 19 18
9 12 14 13 14 16 15 16 16 17 18 14 15 17 11 11 16 19 22 22 23 22 23 20 16 18 17 16 18 20 18 19 18 17 17 18 20 23 22 22 22 21 21
10 10 11 12 13 16 16 17 17 17 16 16 12 15 10 7 13 12 8 13 15 19 22 20 22 22 17 20 16 17 17 18 19 19 19 19 19 21 21 22 24 23 23
10 9 9 12 12 13 16 15 16 17 18 19 16 16 17 20 11 4 5 6 7 9 14 18 21 19 22 18 15 18 16 19 19 19 18 20 21 21 21 21 20 21 21
8 9 10 9 10 13 15 16 16 17 19 18 17 16 17 15 15 17 13 8 8 6 5 8 12 20 20 23 15 15 21 20 19 19 18 18 20 22 21 22 23 22 21
8 9 10 10 11 13 14 15 15 16 17 18 17 16 14 12 8 11 14 11 8 9 7 6 8 11 14 17 20 19 16 20 18 20 19 20 20 21 24 24 23 22 23
11 6 7 11 15 16 15 16 16 15 14 15 12 14 11 8 9 11 15 14 11 6 6 5 10 6 6 9 13 13 12 13 15 13 13 13 14 20 25 25 27 26 25
3 10 13 12 10 13 12 11 10 9 10 10 11 12 11 12 12 14 14 13 13 10 7 5 6 8 6 7 8 9 7 7 8 10 11 12 13 14 19 26 27 28 27
5 7 8 7 7 8 8 7 7 8 9 8 9 9 11 10 11 11 12 11 11 9 9 6 5 5 6 7 8 4 6 7 10 12 12 14 16 16 16 19 26 28 28
4 4 4 3 4 4 6 6 5 6 8 8 9 10 8 7 4 5 7 8 12 9 6 10 8 4 4 3 5 4 6 10 12 15 17 18 19 21 24 22 21 27 29
1 1 2 2 3 4 4 4 3 5 5 6 6 5 4 4 2 2 3 4 5 6 4 8 11 12 9 7 7 5 6 8 13 18 18 18 21 23 23 26 26 24 28
4 3 1 1 2 2 2 4 3 3 3 5 4 6 5 4 6 10 10 10 11 12 11 11 11 11 14 17 16 17 18 17 15 19 25 29 26 26 26 27 28 29 26
3 2 0 1 2 3 3 3 3 4 5 5 5 4 5 6 5 4 4 11 15 15 15 16 17 13 16 18 21 22 24 25 26 26 28 21 24 25 24 26 27 28 30
3 2 2 2 1 2 2 2 3 4 4 6 7 8 7 6 7 8 7 7 7 8 9 10 13 17 18 16 13 16 18 15 15 16 22 26 24 26 26 26 26 26 29
2 1 1 1 2 3 2 4 5 4 4 4 4 5 6 7 7 7 4 8 9 7 9 12 13 14 15 16 17 15 17 18 19 19 20 20 17 19 17 20 21 25 27
3 3 4 4 3 3 8 7 4 3 5 5 4 4 5 6 8 11 11 12 13 14 12 12 14 14 15 15 15 16 17 19 21 17 20 19 16 19 20 20 21 25 27
5 5 5 4 4 6 6 5 5 3 3 4 3 3 2 7 8 10 14 16 15 19 20 18 14 15 18 17 17 19 19 19 21 20 21 26 21 24 22 22 25 29 33
5 5 4 2 2 3 5 5 6 3 4 3 3 4 5 7 11 17 18 15 15 15 14 15 16 18 17 18 18 19 21 23 24 23 20 26 21 23 21 21 24 29 32
3 2 2 1 3 1 3 5 6 6 7 7 7 8 10 9 15 20 20 17 17 17 16 21 25 26 24 23 22 19 20 20 23 21 18 22 22 21 20 21 22 25 28
3 3 3 2 1 1 3 5 6 6 10 11 12 12 17 17 20 21 23 20 21 19 19 21 22 20 20 20 20 21 17 20 21 22 16 18 19 18 19 15 13 12 14
Wind_Direction
264 259 259 263 269 277 275 270 260 259 260 260 258 259 267 268 263 261 251 262 266 249 245 251 249 244 242 251 257 229 234 230 231 230 234 236 230 225 223 228 230 222 237
261 265 266 273 273 275 272 266 261 252 242 256 258 256 256 263 265 266 259 257 264 254 248 258 252 249 245 248 246 223 231 231 233 233 235 239 237 234 229 224 227 239 234
270 272 262 270 271 267 270 269 272 258 259 247 255 259 268 264 267 266 260 252 239 263 260 255 248 246 240 242 237 227 236 237 235 237 236 239 237 237 232 228 226 232 234
286 283 280 276 266 265 263 268 258 252 253 261 261 258 256 262 274 273 267 260 236 241 259 259 247 247 243 239 235 234 239 242 241 244 240 237 236 235 234 233 229 235 237
306 280 285 278 270 264 261 258 267 272 261 256 257 262 265 262 267 268 260 257 253 249 251 250 247 246 242 235 233 228 234 238 242 246 243 240 239 234 236 236 233 234 239
311 315 303 281 273 269 268 268 260 266 272 271 272 266 263 266 264 261 267 261 257 244 251 238 247 250 238 236 230 229 231 232 240 243 242 242 241 241 239 238 239 236 237
285 298 307 297 269 269 265 268 271 278 279 277 276 279 270 272 261 262 264 253 260 248 250 234 230 235 247 246 239 234 225 235 236 240 243 242 242 244 242 240 238 238 237
290 304 304 281 267 269 269 276 281 285 281 282 290 291 294 279 285 276 260 259 251 252 245 232 221 232 231 243 238 237 238 238 240 239 242 241 238 242 244 243 242 242 245
289 297 298 289 272 275 276 278 281 282 282 282 285 284 291 283 302 294 276 262 255 245 235 230 230 232 237 236 233 240 233 237 242 242 244 240 238 239 240 243 247 248 247
256 272 285 286 284 282 275 278 280 274 270 273 274 274 282 272 282 281 248 268 255 235 231 233 229 241 238 230 235 222 227 231 236 242 241 241 243 237 236 239 242 246 245
245 253 271 286 301 292 284 285 280 277 274 271 268 287 297 282 274 252 275 277 244 272 252 231 251 235 240 227 221 236 231 228 228 231 237 238 237 237 242 245 243 240 241
228 250 280 281 293 290 290 287 282 278 279 273 271 282 286 280 286 261 266 277 291 257 250 253 242 231 227 230 229 227 242 226 234 238 243 246 246 246 245 244 244 244 243
206 238 337 321 285 292 285 286 289 283 280 281 268 285 280 290 296 285 273 271 285 283 239 246 226 195 223 208 199 207 213 225 234 235 247 256 263 262 252 247 245 245 247
242 284 295 303 291 276 283 287 292 284 289 283 275 281 267 274 288 271 269 266 267 263 240 228 201 181 191 202 192 202 201 213 241 240 254 264 270 274 258 249 251 246 245
282 313 321 319 307 295 286 291 284 284 294 306 304 287 283 277 281 277 259 254 247 229 208 183 190 186 194 182 204 181 221 222 247 266 270 277 280 280 276 263 251 247 246
307 318 321 336 330 315 305 297 308 304 304 305 301 297 289 299 313 281 269 259 241 233 205 178 157 145 191 222 247 207 239 270 279 273 276 280 281 280 273 267 263 248 245
128 102 77 59 54 36 25 20 22 17 355 345 327 320 336 315 299 250 236 233 183 192 216 214 234 236 234 237 240 255 263 281 286 292 284 277 286 286 279 268 260 256 248
152 153 142 87 50 37 37 69 67 36 5 9 345 343 344 348 310 275 252 237 234 239 250 243 226 225 225 240 246 256 264 265 265 280 279 284 285 283 278 270 260 254 253
182 176 164 38 29 30 23 15 15 41 40 25 10 12 8 5 343 337 304 258 249 245 242 231 230 235 252 255 264 270 273 275 273 267 273 289 293 286 278 270 263 255 250
205 243 264 279 326 357 351 19 6 344 343 329 320 315 314 322 325 330 336 329 315 304 288 277 261 251 251 243 245 272 279 281 274 267 267 264 271 278 280 267 262 259 250
224 229 260 331 3 33 303 346 345 340 350 2 356 21 337 331 327 326 342 326 327 326 318 313 317 309 289 281 273 263 272 273 273 273 279 275 274 272 279 280 273 264 253
231 259 294 308 322 330 328 333 5 38 25 40 31 14 354 357 352 335 328 325 317 313 311 299 293 285 285 291 292 280 274 276 278 272 274 270 262 260 261 262 255 249 253
266 279 286 311 328 327 345 1 30 34 38 5 358 354 353 308 340 329 324 326 327 315 312 306 295 289 286 284 280 279 281 273 270 271 272 272 268 267 266 263 262 256 256
271 292 294 318 67 354 359 3 357 355 325 331 331 321 322 321 307 327 328 324 314 308 299 290 286 290 288 279 266 271 273 275 278 279 276 274 275 270 270 265 263 262 258
263 228 209 184 139 107 358 356 353 312 300 302 294 299 305 312 308 321 323 319 313 310 306 304 302 303 307 293 281 273 268 272 276 277 270 268 272 274 271 270 266 266 271
169 151 209 196 322 16 352 339 325 305 296 298 300 301 308 306 314 319 320 317 311 308 303 298 292 294 297 297 298 291 274 264 268 276 278 265 270 272 278 274 263 261 274
Height
1563 1564 1564 1564 1564 1564 1563 1563 1563 1563 1564 1564 1565 1566 1564 1564 1564 1567 1567 1564 1565 1565 1566 1568 1570 1569 1571 1572 1573 1575 1577 1578 1580 1582 1583 1584 1585 1585 1586 1587 1588 1590 1591
1562 1562 1563 1562 1562 1561 1560 1560 1559 1558 1559 1561 1561 1561 1561 1560 1560 1559 1559 1562 1560 1561 1563 1564 1563 1564 1566 1568 1569 1570 1573 1576 1578 1580 1580 1582 1583 1583 1584 1585 1586 1587 1588
1559 1559 1559 1558 1560 1559 1556 1555 1555 1555 1555 1555 1556 1557 1555 1552 1555 1555 1555 1555 1556 1557 1558 1559 1561 1560 1562 1563 1565 1568 1570 1572 1575 1576 1578 1579 1581 1582 1582 1582 1584 1585 1586
1555 1554 1554 1554 1555 1555 1553 1553 1552 1552 1552 1551 1551 1552 1550 1550 1550 1550 1551 1550 1550 1553 1552 1554 1555 1556 1556 1558 1561 1563 1566 1569 1570 1572 1574 1576 1578 1579 1580 1581 1581 1583 1583
1552 1549 1549 1550 1550 1550 1549 1549 1549 1547 1546 1545 1545 1545 1544 1540 1545 1544 1545 1545 1546 1548 1550 1548 1550 1551 1552 1554 1557 1559 1563 1564 1566 1568 1570 1572 1574 1576 1577 1578 1579 1580 1581
1542 1546 1544 1543 1545 1545 1544 1543 1544 1543 1542 1542 1540 1539 1537 1537 1537 1538 1538 1540 1541 1541 1544 1545 1546 1546 1548 1549 1552 1555 1556 1559 1561 1562 1564 1567 1569 1572 1573 1574 1575 1577 1578
1542 1540 1539 1539 1540 1540 1541 1540 1540 1539 1539 1540 1538 1537 1534 1532 1531 1532 1533 1534 1535 1536 1538 1538 1542 1545 1545 1546 1547 1551 1553 1555 1556 1558 1559 1562 1564 1567 1569 1570 1572 1574 1575
1537 1536 1535 1536 1537 1537 1537 1537 1536 1536 1536 1536 1535 1534 1531 1530 1527 1527 1528 1528 1529 1530 1532 1535 1538 1539 1541 1541 1543 1545 1547 1549 1551 1553 1555 1557 1559 1562 1564 1566 1568 1569 1571
1533 1533 1532 1533 1533 1533 1534 1533 1532 1532 1532 1532 1532 1532 1529 1526 1523 1522 1523 1523 1523 1524 1526 1529 1530 1533 1535 1536 1538 1540 1542 1544 1546 1548 1550 1553 1555 1557 1559 1562 1564 1565 1566
1528 1529 1529 1530 1530 1530 1530 1530 1529 1529 1528 1528 1527 1527 1526 1525 1523 1521 1521 1522 1521 1522 1522 1524 1527 1530 1530 1532 1536 1536 1537 1539 1541 1544 1546 1548 1551 1553 1554 1556 1558 1559 1561
1525 1525 1526 1526 1527 1527 1526 1525 1525 1524 1524 1524 1524 1525 1521 1523 1521 1520 1518 1521 1519 1521 1520 1522 1522 1523 1525 1528 1532 1534 1533 1536 1538 1540 1542 1544 1547 1549 1550 1551 1552 1554 1556
1523 1522 1522 1523 1524 1525 1524 1523 1523 1522 1521 1520 1520 1521 1521 1521 1519 1520 1519 1520 1518 1517 1518 1519 1522 1520 1522 1524 1526 1527 1530 1532 1534 1537 1539 1540 1542 1544 1545 1546 1547 1548 1550
1518 1519 1519 1519 1519 1521 1521 1521 1520 1520 1518 1518 1517 1517 1518 1518 1518 1517 1516 1516 1518 1516 1516 1516 1519 1521 1521 1521 1522 1524 1526 1529 1531 1533 1535 1536 1537 1538 1539 1540 1542 1543 1544
1519 1518 1517 1517 1516 1517 1518 1517 1518 1518 1516 1516 1515 1515 1515 1516 1515 1514 1514 1514 1515 1516 1517 1517 1517 1518 1521 1522 1521 1523 1525 1526 1529 1530 1531 1532 1533 1533 1532 1533 1535 1537 1538
1518 1517 1517 1517 1517 1517 1517 1516 1515 1515 1515 1515 1514 1513 1513 1512 1511 1511 1510 1511 1513 1513 1514 1515 1516 1517 1518 1520 1520 1524 1524 1525 1526 1527 1527 1528 1528 1528 1528 1528 1528 1529 1531
1520 1519 1518 1518 1518 1518 1517 1516 1515 1514 1514 1514 1513 1511 1511 1511 1508 1509 1508 1509 1511 1512 1513 1513 1514 1517 1520 1521 1520 1521 1524 1523 1523 1523 1522 1522 1523 1522 1522 1522 1522 1523 1524
1521 1521 1520 1520 1519 1518 1517 1517 1516 1516 1515 1513 1512 1511 1510 1509 1507 1509 1509 1509 1508 1510 1512 1513 1513 1513 1517 1517 1519 1519 1519 1521 1521 1519 1518 1518 1517 1516 1515 1514 1515 1515 1516
1521 1522 1522 1521 1520 1519 1519 1518 1518 1517 1515 1515 1513 1512 1510 1508 1507 1507 1507 1507 1506 1508 1510 1510 1511 1511 1512 1512 1513 1513 1514 1516 1516 1517 1512 1511 1511 1509 1507 1506 1506 1508 1509
1523 1522 1521 1521 1521 1521 1520 1519 1518 1517 1516 1515 1514 1512 1509 1508 1507 1507 1506 1505 1505 1505 1504 1506 1506 1506 1506 1507 1506 1506 1505 1505 1504 1506 1505 1504 1502 1500 1499 1498 1498 1499 1500
1522 1521 1521 1519 1520 1520 1519 1519 1517 1515 1514 1512 1512 1510 1509 1508 1507 1507 1506 1504 1503 1502 1502 1501 1500 1500 1500 1500 1499 1500 1499 1500 1499 1500 1498 1496 1496 1493 1491 1490 1490 1491 1492
1521 1521 1520 1520 1519 1519 1519 1516 1514 1514 1512 1511 1511 1510 1507 1506 1506 1506 1506 1503 1501 1503 1503 1501 1499 1496 1495 1494 1493 1494 1495 1494 1493 1493 1491 1490 1489 1488 1487 1485 1483 1483 1484
1519 1519 1519 1517 1517 1516 1515 1514 1513 1513 1510 1511 1511 1510 1508 1506 1505 1503 1503 1501 1500 1498 1498 1498 1497 1496 1494 1493 1490 1488 1488 1487 1485 1487 1485 1484 1484 1482 1481 1480 1480 1478 1477
1517 1516 1515 1515 1515 1514 1513 1513 1512 1513 1512 1511 1511 1511 1511 1509 1506 1503 1502 1499 1498 1495 1492 1490 1489 1489 1487 1487 1485 1482 1480 1478 1476 1478 1478 1475 1476 1473 1473 1472 1471 1469 1468
1514 1514 1514 1512 1513 1513 1513 1513 1512 1512 1512 1511 1510 1509 1507 1505 1502 1500 1498 1497 1495 1493 1491 1488 1485 1482 1480 1479 1477 1477 1474 1471 1469 1466 1467 1464 1466 1465 1465 1463 1462 1460 1459
1511 1508 1511 1510 1508 1508 1510 1510 1511 1513 1513 1511 1509 1507 1504 1502 1498 1496 1493 1491 1489 1487 1485 1481 1477 1474 1471 1468 1467 1466 1466 1466 1462 1462 1462 1460 1460 1458 1457 1455 1454 1452 1451
1511 1512 1512 1510 1509 1508 1507 1508 1509 1511 1511 1510 1507 1505 1500 1498 1495 1492 1489 1486 1483 1481 1478 1475 1472 1469 1467 1465 1461 1458 1459 1458 1458 1456 1457 1455 1454 1453 1450 1448 1448 1447 1447